Hourly Data Report for March 22, 2003

SHERBROOKE A
QUEBEC

45°26'00.000" N
71°41'00.000" W
241.40 m
7028124
71610
YSC

Download Data

Hourly Data (March 2003)
Hourly Data Report for March 22, 2003
TIME
LST
Temp Definition
°C
Dew Point Definition
°C
Rel Hum Definition
%
Precip. Amount Definition
mm

Wind Dir Definition
10's deg

Wind Spd Definition
km/h
Visibility Definition
km
Stn Press Definition
kPa
Hmdx Definition


Wind Chill Definition


Weather Definition


00:00 3.4 1.5 87   5 6 3.4 97.60      
01:00 3.2 1.3 87   4 7 2.3 97.61      
02:00 3.4 1.4 87   5 6 5.6 97.60      
03:00 2.5 0.6 87   12 4 2.4 97.61      
04:00 2.4 0.5 87   4 4 0.6 97.62      
05:00 1.8 -0.1 87     0 0.6 97.63      
06:00 1.9 0.1 88   7 4 1.3 97.66      
07:00 2.0 0.1 87     0 0.8 97.73      
08:00 2.5 0.8 89     0 1.6 97.75     Rain, Fog
09:00 3.2 1.2 87   24 4 6.4 97.78     Fog
10:00 4.6 2.2 84     0 12.9 97.73     Cloudy
11:00 5.0 1.9 80   30 4 19.3 97.74     Cloudy
12:00 4.2 1.9 85   26 7 6.4 97.74     Rain
13:00 4.5 2.7 88   30 7 4.8 97.73     Rain
14:00 4.5 2.7 88   30 6 9.7 97.71     Rain
15:00 5.4 3.1 85     0 12.9 97.69     Drizzle
16:00 4.6 2.2 84   26 6 16.1 97.73     Cloudy
17:00 4.1 2.2 87   25 6 3.2 97.77     Rain, Fog
18:00 3.4 1.6 88   26 7 0.3 97.83     Rain
19:00 3.3 1.6 89   26 6 1.6 97.90     Rain
20:00 2.6 0.8 88   27 7 1.1 97.93      
21:00 2.2 0.3 87   13 4 0.3 97.92      
22:00 1.9 0.0 87     0 0.5 97.90      
23:00 2.0 0.2 88   10 6 1.1 97.86      

Notes on Data Quality.

Legend

  • E = Estimated
  • M = Missing
  • NA = Not Available*
  • [empty] = Indicates an unobserved value
Date modified: